Torna al catalogo

FENGYUN 1C DEB

AttivoSSO
NORAD 38513·DEBRIS·🇨🇳 China

Lanciato May 10, 1999 da Taiyuan Satellite Launch Center

Loading…

Prossimi Passaggi (prossime 24 ore)

TLE

AggiornatoSource: Space-Track

Epoca: Sep 13, 2026, 12:27 UTC

1 38513U 99025ESY 26256.51915668  .00007902  00000-0  61520-3 0  9992
2 38513  97.6005 149.2370 0227891  66.2128 296.2801 14.83164700677214

Traccia FENGYUN 1C DEB in tempo reale con AllMySat

Download on the App Store